Weather History for KAZO - May, 2013

Change the Weather History Date:

Sunday, May 19, 2013

  Actual Average Record
Temperature  
Mean Temperature 71 °F 60 °F  
Max Temperature 87 °F 71 °F 90 °F (1962)
Min Temperature 55 °F 49 °F 30 °F (2002)
Degree Days  
Heating Degree Days 0 7  
Month to date heating degree days 81 164  
Since 1 July heating degree days 6213 6307  
Cooling Degree Days 6 1  
Month to date cooling degree days 29 13  
Year to date cooling degree days 31 17  
Growing Degree Days 20 (Base 50)    
Moisture  
Dew Point 55 °F    
Average Humidity 58    
Maximum Humidity 72    
Minimum Humidity 44    
Precipitation  
Precipitation 0.00 in 0.13 in 1.37 in (1957)
Month to date precipitation 0.83 2.40  
Year to date precipitation 12.42 10.97  
Sea Level Pressure  
Sea Level Pressure 29.94 in    
Wind  
Wind Speed 3 mph (SSE)    
Max Wind Speed 12 mph    
Max Gust Speed 29 mph    
Visibility 10 miles    
Events      
T = Trace of Precipitation, MM = Missing Value Source: NWS Daily Summary

Daily Weather History Graph

Daily Weather History Graph

Search for Another Location

Airport or City:

Trip Planner

Search our weather history database for the weather conditions in past years. The results will help you decide how hot, cold, wet, or windy it might be!

Date:

Astronomy

May. 19, 2013 Rise Set
Actual Time 6:17 AM EDT 9:00 PM EDT
Civil Twilight 5:44 AM EDT 9:33 PM EDT
Nautical Twilight 5:03 AM EDT 10:14 PM EDT
Astronomical Twilight 4:16 AM EDT 11:01 PM EDT
Moon 2:58 PM EDT (5/19) 2:47 AM EDT (5/19)
Length of Visible Light 15h 48m
Length of Day
14h 43m
Waxing Gibbous, 65% of the Moon is Illuminated
May 19
Waxing Gibbous
May 25
Full
May 31
Last Quarter
Jun 8
New
Jun 16
First Quarter

Hourly Weather History & Observations

Time (EDT) Temp. Heat Index Dew Point Humidity Pressure Visibility Wind Dir Wind Speed Gust Speed Precip Events Conditions
12:53 AM 64.0 °F - 48.0 °F 56% 30.02 in 10.0 mi Calm Calm - N/A   Clear
1:53 AM 62.1 °F - 46.9 °F 58% 30.00 in 10.0 mi Calm Calm - N/A   Clear
2:53 AM 61.0 °F - 45.0 °F 56% 29.99 in 10.0 mi Calm Calm - N/A   Clear
3:53 AM 57.0 °F - 45.0 °F 64% 30.00 in 10.0 mi Calm Calm - N/A   Clear
4:53 AM 55.9 °F - 46.0 °F 69% 30.00 in 10.0 mi Calm Calm - N/A   Clear
5:53 AM 55.4 °F - 46.4 °F 72% 30.01 in 10.0 mi Calm Calm - N/A   Clear
6:53 AM 55.9 °F - 46.9 °F 72% 30.00 in 10.0 mi Calm Calm - N/A   Clear
7:53 AM 60.8 °F - 48.2 °F 63% 30.00 in 10.0 mi Calm Calm - N/A   Clear
8:53 AM 64.9 °F - 51.1 °F 61% 30.00 in 10.0 mi SSE 4.6 mph - N/A   Clear
9:53 AM 70.0 °F - 55.9 °F 61% 29.99 in 10.0 mi SSE 3.5 mph - N/A   Clear
10:53 AM 73.9 °F - 59.0 °F 59% 29.99 in 10.0 mi Calm Calm - N/A   Clear
11:53 AM 79.0 °F - 61.0 °F 54% 29.99 in 10.0 mi Calm Calm - N/A   Clear
12:53 PM 80.1 °F 81.1 °F 61.0 °F 52% 29.97 in 10.0 mi SE 5.8 mph - N/A   Partly Cloudy
1:53 PM 82.9 °F 84.0 °F 63.0 °F 51% 29.95 in 10.0 mi South 10.4 mph - N/A   Scattered Clouds
2:53 PM 84.9 °F 85.0 °F 61.0 °F 44% 29.91 in 10.0 mi SSE 5.8 mph - N/A   Scattered Clouds
3:53 PM 84.0 °F 84.4 °F 61.0 °F 46% 29.88 in 10.0 mi South 9.2 mph - N/A   Scattered Clouds
4:53 PM 84.9 °F 84.8 °F 60.1 °F 43% 29.88 in 10.0 mi Variable 5.8 mph - N/A   Scattered Clouds
5:53 PM 84.0 °F 84.0 °F 60.1 °F 44% 29.87 in 10.0 mi South 8.1 mph 16.1 mph N/A   Partly Cloudy
6:53 PM 84.0 °F 84.0 °F 60.1 °F 44% 29.86 in 10.0 mi Calm Calm - N/A   Clear
7:53 PM 82.0 °F 83.0 °F 62.1 °F 51% 29.85 in 10.0 mi South 6.9 mph - N/A   Partly Cloudy
8:53 PM 80.1 °F 80.9 °F 60.1 °F 50% 29.84 in 10.0 mi SSE 3.5 mph - N/A   Clear
9:53 PM 75.0 °F - 60.1 °F 60% 29.87 in 10.0 mi Calm Calm - N/A   Clear
10:53 PM 71.1 °F - 60.1 °F 68% 29.88 in 10.0 mi SSE 3.5 mph - N/A   Clear
11:53 PM 73.4 °F - 60.8 °F 65% 29.89 in 10.0 mi SSE 4.6 mph - N/A   Clear